GW2137 Weather Reports


Display with metric or nautical units.
time (UTC)temp
F
wind
direction
speed
MPH
gust
MPH
rain 1hr
in
rain 24hr
in
rain mn
in
humidity
%
barometer
mb
20240416114958 44 17 1.0 2.0 0.00 0.00 0.00 82 1016.7
20240416114457 44 17 1.0 2.0 0.00 0.00 0.00 82 1016.8
20240416113932 43 17 1.0 2.0 0.00 0.00 0.00 85 1016.8
20240416113435 42 17 1.0 3.0 0.00 0.00 0.00 87 1016.8
20240416112908 41 17 1.0 3.0 0.00 0.00 0.00 89 1016.7
20240416112344 41 112 0.0 2.0 0.00 0.00 0.00 91 1016.6
20240416111841 40 113 0.0 2.0 0.00 0.00 0.00 91 1016.7
20240416111338 40 60 0.0 2.0 0.00 0.00 0.00 91 1016.5
20240416110834 40 324 1.0 3.0 0.00 0.00 0.00 91 1016.5
20240416110307 40 331 1.0 3.0 0.00 0.00 0.00 91 1016.4
20240416105804 40 188 1.0 2.0 0.00 0.00 0.00 91 1016.4
20240416105301 39 188 1.0 2.0 0.00 0.00 0.00 91 1016.4
20240416104759 39 225 1.0 2.0 0.00 0.00 0.00 91 1016.3
20240416104233 39 225 1.0 2.0 0.00 0.00 0.00 91 1016.1
20240416103708 39 225 1.0 2.0 0.00 0.00 0.00 91 1016.1
20240416103202 39 225 1.0 2.0 0.00 0.00 0.00 91 1016.0
20240416102702 39 225 1.0 2.0 0.00 0.00 0.00 91 1015.9
20240416102132 39 225 1.0 2.0 0.00 0.00 0.00 91 1015.9
20240416101632 39 224 1.0 2.0 0.00 0.00 0.00 91 1015.8
20240416101106 39 355 1.0 2.0 0.00 0.00 0.00 90 1015.8
20240416100601 39 355 2.0 2.0 0.00 0.00 0.00 90 1015.6
20240416100332 39 355 1.0 2.0 0.00 0.00 0.00 90 1015.5
20240416095532 39 355 1.0 2.0 0.00 0.00 0.00 90 1015.4
20240416095006 40 355 1.0 2.0 0.00 0.00 0.00 90 1015.3
20240416094712 40 355 1.0 2.0 0.00 0.00 0.00 90 1015.3
20240416093912 40 355 1.0 2.0 0.00 0.00 0.00 90 1015.2
20240416093411 40 355 2.0 3.0 0.00 0.00 0.00 89 1015.0
20240416093114 40 355 1.0 2.0 0.00 0.00 0.00 89 1015.0
20240416092340 40 355 1.0 3.0 0.00 0.00 0.00 90 1014.9
20240416091813 40 355 2.0 3.0 0.00 0.00 0.00 90 1015.0
20240416091519 40 355 2.0 3.0 0.00 0.00 0.00 90 1014.9
20240416090952 40 355 2.0 3.0 0.00 0.00 0.00 90 1014.9
20240416090155 40 355 2.0 3.0 0.00 0.00 0.00 89 1014.9
20240416085630 41 355 2.0 4.0 0.00 0.00 0.00 89 1014.9
20240416085103 41 355 2.0 4.0 0.00 0.00 0.00 90 1014.8
20240416084535 41 355 2.0 4.0 0.00 0.00 0.00 90 1014.8
20240416084034 41 355 2.0 4.0 0.00 0.00 0.00 90 1014.8
20240416083505 40 53 0.0 2.0 0.00 0.00 0.00 90 1014.6
20240416083004 40 53 0.0 2.0 0.00 0.00 0.00 89 1014.6
20240416082435 40 53 0.0 1.0 0.00 0.00 0.00 89 1014.5
20240416081933 40 53 0.0 1.0 0.00 0.00 0.00 88 1014.4
20240416081429 41 53 0.0 0.0 0.00 0.00 0.00 87 1014.3
20240416080928 41 53 0.0 0.0 0.00 0.00 0.00 87 1014.3
20240416080904 41 53 0.0 0.0 0.00 0.00 0.00 87 1014.3
20240416080104 42 53 0.0 0.0 0.00 0.00 0.00 87 1014.3
20240416075331 42 53 0.0 2.0 0.00 0.00 0.00 87 1014.3
20240416074805 42 53 1.0 2.0 0.00 0.00 0.00 87 1014.3
20240416074508 42 53 2.0 3.0 0.00 0.00 0.00 88 1014.3
20240416073734 42 53 2.0 3.0 0.00 0.00 0.00 88 1014.3
20240416073439 42 53 2.0 3.0 0.00 0.00 0.00 88 1014.2
20240416072705 42 54 1.0 2.0 0.00 0.00 0.00 88 1014.3
20240416072434 42 54 1.0 2.0 0.00 0.00 0.00 89 1014.3
20240416071635 42 54 1.0 2.0 0.00 0.00 0.00 89 1014.2
20240416071134 42 54 1.0 1.0 0.00 0.00 0.00 89 1014.2
20240416070604 42 54 0.0 1.0 0.00 0.00 0.00 89 1014.2
20240416070105 42 54 0.0 0.0 0.00 0.00 0.00 89 1014.2
20240416065535 42 54 0.0 0.0 0.00 0.00 0.00 88 1014.3
20240416065034 42 54 0.0 0.0 0.00 0.00 0.00 88 1014.2
20240416064508 42 54 0.0 1.0 0.00 0.00 0.00 88 1014.3
20240416063939 42 54 1.0 1.0 0.00 0.00 0.00 88 1014.2
20240416063442 42 54 1.0 1.0 0.00 0.00 0.00 88 1014.2
20240416062917 42 54 1.0 1.0 0.00 0.00 0.00 89 1014.2
20240416062415 42 54 0.0 1.0 0.00 0.00 0.00 89 1014.2
20240416062142 42 54 0.0 1.0 0.00 0.00 0.00 88 1014.2
20240416061413 43 54 1.0 1.0 0.00 0.00 0.00 88 1014.3
20240416060908 43 54 1.0 1.0 0.00 0.00 0.00 89 1014.3
20240416060409 43 54 0.0 1.0 0.00 0.00 0.00 89 1014.3
20240416055848 43 54 0.0 1.0 0.00 0.00 0.00 89 1014.3
20240416055346 43 54 0.0 1.0 0.00 0.00 0.00 89 1014.3
20240416054830 43 54 0.0 0.0 0.00 0.00 0.00 88 1014.4
20240416054333 43 54 0.0 1.0 0.00 0.00 0.00 88 1014.5
20240416053816 43 54 0.0 1.0 0.00 0.00 0.00 88 1014.4
20240416053318 43 54 0.0 1.0 0.00 0.00 0.00 88 1014.5
20240416052754 43 54 0.0 1.0 0.00 0.00 0.00 88 1014.5
20240416052252 43 54 0.0 0.0 0.00 0.00 0.00 88 1014.4
20240416051755 43 54 1.0 2.0 0.00 0.00 0.00 88 1014.4
20240416051245 43 54 1.0 2.0 0.00 0.00 0.00 88 1014.4
20240416050743 43 54 1.0 2.0 0.00 0.00 0.00 88 1014.4
20240416050452 44 54 1.0 2.0 0.00 0.00 0.00 88 1014.4
20240416045722 44 54 1.0 2.0 0.00 0.00 0.00 87 1014.5
20240416045213 44 54 0.0 2.0 0.00 0.00 0.00 87 1014.4
20240416044713 44 54 0.0 0.0 0.00 0.00 0.00 87 1014.4
20240416044213 44 54 0.0 1.0 0.00 0.00 0.00 87 1014.4
20240416043649 44 54 0.0 1.0 0.00 0.00 0.00 87 1014.3
20240416043126 44 54 0.0 1.0 0.00 0.00 0.00 87 1014.2
20240416042624 44 54 0.0 0.0 0.00 0.00 0.00 85 1014.3
20240416042109 44 54 0.0 2.0 0.00 0.00 0.00 86 1014.2
20240416041543 45 54 0.0 2.0 0.00 0.00 0.00 86 1014.2
20240416041313 45 54 1.0 2.0 0.00 0.00 0.00 86 1014.2
20240416040517 45 54 1.0 2.0 0.00 0.00 0.00 86 1014.1
20240416040221 45 54 0.0 2.0 0.00 0.00 0.00 85 1014.1
20240416035422 45 54 0.0 2.0 0.00 0.00 0.00 85 1014.1
20240416034920 45 54 1.0 2.0 0.00 0.00 0.00 84 1014.0
20240416034352 45 54 1.0 2.0 0.00 0.00 0.00 85 1014.0
20240416034122 45 54 1.0 1.0 0.00 0.00 0.00 85 1014.1
20240416033324 45 54 0.0 1.0 0.00 0.00 0.00 84 1014.1
20240416032758 46 54 0.0 1.0 0.00 0.00 0.00 84 1014.0
20240416032526 46 54 0.0 1.0 0.00 0.00 0.00 84 1013.9
20240416031752 46 54 1.0 1.0 0.00 0.00 0.00 84 1013.8
20240416031728 46 54 1.0 2.0 0.00 0.00 0.00 84 1013.8
20240416030657 46 54 1.0 2.0 0.00 0.00 0.00 82 1013.8
20240416030157 47 54 0.0 1.0 0.00 0.00 0.00 82 1013.8
20240416025628 47 54 0.0 1.0 0.00 0.00 0.00 79 1013.9
20240416025357 47 54 0.0 1.0 0.00 0.00 0.00 78 1013.8
20240416024602 48 54 0.0 0.0 0.00 0.00 0.00 78 1013.8
20240416024055 48 54 0.0 2.0 0.00 0.00 0.00 77 1013.8
20240416023555 49 54 0.0 2.0 0.00 0.00 0.00 77 1013.6
20240416023029 49 54 0.0 1.0 0.00 0.00 0.00 75 1013.5
20240416022758 50 54 0.0 1.0 0.00 0.00 0.00 75 1013.3
20240416022029 50 54 0.0 2.0 0.00 0.00 0.00 73 1013.2
20240416021504 51 54 0.0 2.0 0.00 0.00 0.00 74 1013.2
20240416021003 51 54 0.0 3.0 0.00 0.00 0.00 73 1013.2
20240416020451 52 54 0.0 3.0 0.00 0.00 0.00 70 1013.1
20240416015950 52 52 1.0 3.0 0.00 0.00 0.00 69 1013.2
20240416015449 52 52 1.0 3.0 0.00 0.00 0.00 69 1013.1
20240416014947 52 54 1.0 3.0 0.00 0.00 0.00 70 1013.2
20240416014449 53 61 1.0 2.0 0.00 0.00 0.00 68 1013.3
20240416013950 53 61 1.0 3.0 0.00 0.00 0.00 68 1013.3
20240416013659 53 74 1.0 3.0 0.00 0.00 0.00 68 1013.3
20240416012911 53 94 1.0 3.0 0.00 0.00 0.00 68 1013.3
20240416012413 53 96 1.0 3.0 0.00 0.00 0.00 68 1013.2
20240416011849 53 5 1.0 3.0 0.00 0.00 0.00 67 1013.0
20240416011559 53 10 2.0 3.0 0.00 0.01 0.00 68 1013.0
20240416010827 54 13 2.0 3.0 0.00 0.01 0.00 67 1013.0
20240416010327 54 355 1.0 3.0 0.00 0.01 0.00 66 1012.9
20240416005809 54 57 1.0 4.0 0.00 0.01 0.00 67 1012.6
20240416005247 54 60 2.0 5.0 0.00 0.01 0.00 67 1012.6
20240416004727 54 28 3.0 11.0 0.00 0.01 0.00 67 1012.4
20240416004159 54 60 2.0 11.0 0.00 0.01 0.00 67 1012.3
20240416003659 54 59 2.0 6.0 0.00 0.01 0.00 68 1012.2
20240416003159 55 60 1.0 7.0 0.00 0.01 0.00 67 1012.1
20240416002657 55 61 1.0 7.0 0.00 0.01 0.00 67 1012.0
20240416002427 55 207 2.0 9.0 0.00 0.02 0.00 66 1012.0
20240416001628 55 14 2.0 9.0 0.00 0.02 0.00 65 1011.8
20240416001102 56 115 1.0 3.0 0.00 0.03 0.00 64 1011.8
20240416000535 56 68 2.0 8.0 0.00 0.03 0.00 63 1011.6
20240416000008 56 344 1.0 8.0 0.00 0.03 0.00 63 1011.4
20240415235443 56 226 1.0 5.0 0.00 0.03 0.00 63 1011.5
20240415234917 56 53 2.0 7.0 0.00 0.03 0.00 63 1011.4
20240415234413 56 294 2.0 7.0 0.00 0.03 0.00 64 1011.3
20240415233911 57 47 2.0 9.0 0.00 0.03 0.00 63 1011.1
20240415233407 57 92 2.0 8.0 0.00 0.03 0.00 63 1010.9
20240415232904 57 15 2.0 8.0 0.00 0.03 0.00 63 1011.0
20240415232402 57 329 2.0 5.0 0.00 0.03 0.00 62 1010.9
20240415231858 58 46 2.0 9.0 0.00 0.03 0.00 61 1010.6
20240415231333 58 54 3.0 10.0 0.00 0.03 0.00 61 1010.5
20240415230806 58 22 3.0 10.0 0.00 0.03 0.00 59 1010.4
20240415230242 59 60 3.0 9.0 0.00 0.03 0.00 58 1010.4
20240415225716 59 16 3.0 11.0 0.00 0.03 0.00 57 1010.4
20240415225149 60 65 2.0 11.0 0.00 0.03 0.00 56 1010.4
20240415224621 60 27 1.0 6.0 0.00 0.03 0.00 56 1010.1
20240415224120 60 326 2.0 6.0 0.00 0.03 0.00 57 1010.0
20240415223551 60 336 2.0 7.0 0.00 0.03 0.00 56 1010.0
20240415223050 60 5 2.0 9.0 0.00 0.03 0.00 57 1010.0
20240415222545 60 329 3.0 9.0 0.00 0.03 0.00 57 1009.9
20240415222044 61 234 2.0 8.0 0.00 0.03 0.00 58 1009.9
20240415221515 61 71 2.0 5.0 0.00 0.03 0.00 57 1009.9
20240415221013 61 36 2.0 11.0 0.00 0.03 0.00 57 1009.8
20240415220509 61 5 3.0 11.0 0.00 0.03 0.00 56 1009.7
20240415220239 62 96 3.0 9.0 0.00 0.03 0.00 55 1009.6
20240415215439 62 60 3.0 9.0 0.00 0.03 0.00 55 1009.4
20240415214937 63 63 2.0 8.0 0.00 0.03 0.00 54 1009.4
20240415214433 64 54 3.0 8.0 0.00 0.03 0.00 52 1009.3
20240415213931 64 293 4.0 9.0 0.00 0.03 0.00 48 1009.4
20240415213404 65 355 3.0 9.0 0.00 0.03 0.00 38 1009.1
20240415212901 65 188 2.0 10.0 0.00 0.03 0.00 38 1009.1
20240415212333 65 348 3.0 10.0 0.00 0.03 0.00 38 1009.0
20240415211831 65 301 3.0 9.0 0.00 0.03 0.00 36 1008.9
20240415211319 65 46 3.0 9.0 0.00 0.03 0.00 37 1008.8
20240415211049 65 326 3.0 8.0 0.00 0.03 0.00 36 1008.8
20240415210249 66 46 3.0 7.0 0.00 0.03 0.00 36 1008.7
20240415205748 66 211 3.0 9.0 0.00 0.03 0.00 35 1008.7
20240415205219 66 178 3.0 12.0 0.00 0.03 0.00 36 1008.5
20240415204718 66 315 3.0 12.0 0.00 0.03 0.00 38 1008.4
20240415204148 66 250 3.0 10.0 0.00 0.03 0.00 38 1008.3
20240415203647 66 313 4.0 10.0 0.00 0.03 0.00 38 1008.2
20240415203119 66 325 4.0 9.0 0.00 0.03 0.00 36 1008.1
20240415202616 67 335 4.0 14.0 0.00 0.03 0.00 35 1008.1
20240415202052 67 330 4.0 14.0 0.00 0.03 0.00 36 1008.0
20240415201523 67 291 4.0 14.0 0.00 0.03 0.00 36 1007.8
20240415201022 67 22 4.0 14.0 0.00 0.03 0.00 35 1007.7
20240415200453 68 106 4.0 10.0 0.00 0.03 0.00 37 1007.5
20240415195952 68 355 4.0 16.0 0.00 0.03 0.00 37 1007.3
20240415195925 69 263 4.0 16.0 0.00 0.03 0.00 36 1007.1
20240415194921 69 233 4.0 12.0 0.00 0.03 0.00 35 1007.1
20240415194355 69 296 4.0 10.0 0.00 0.03 0.00 34 1007.0
20240415193833 70 346 4.0 8.0 0.00 0.03 0.00 35 1006.9
20240415193332 70 250 4.0 8.0 0.00 0.03 0.00 33 1006.8
20240415193038 70 329 4.0 9.0 0.00 0.03 0.00 35 1006.8
20240415192239 70 248 4.0 12.0 0.00 0.03 0.00 36 1006.7
20240415191724 70 100 4.0 12.0 0.00 0.03 0.00 34 1006.6
20240415191150 70 324 4.0 12.0 0.00 0.03 0.00 38 1006.5
20240415190649 69 305 3.0 12.0 0.00 0.03 0.00 39 1006.5
20240415190148 69 332 3.0 12.0 0.00 0.03 0.00 42 1006.6
20240415185629 69 141 3.0 9.0 0.00 0.03 0.00 43 1006.6
20240415185132 69 355 3.0 11.0 0.00 0.03 0.00 43 1006.6
20240415184608 70 296 3.0 11.0 0.00 0.03 0.00 40 1006.6
20240415184108 70 302 3.0 9.0 0.00 0.03 0.00 38 1006.6
20240415183606 70 293 4.0 11.0 0.00 0.03 0.00 40 1006.5
20240415183106 70 294 4.0 13.0 0.00 0.03 0.00 40 1006.6
20240415182604 70 350 4.0 13.0 0.00 0.03 0.00 42 1006.7
20240415182105 69 334 3.0 7.0 0.00 0.03 0.00 44 1006.7
20240415181543 69 254 4.0 12.0 0.00 0.03 0.00 44 1006.6
20240415181046 69 25 3.0 11.0 0.00 0.03 0.00 42 1006.6
20240415180521 69 101 3.0 9.0 0.00 0.03 0.00 43 1006.6
20240415175959 69 110 4.0 13.0 0.00 0.03 0.00 44 1006.9
20240415175444 69 15 4.0 13.0 0.00 0.03 0.00 46 1006.6
20240415174945 68 210 3.0 10.0 0.00 0.03 0.00 45 1006.7
20240415174422 68 9 4.0 10.0 0.00 0.03 0.00 47 1006.7
20240415174359 68 258 4.0 12.0 0.00 0.03 0.00 46 1006.6
20240415173329 68 350 4.0 12.0 0.00 0.03 0.00 48 1007.0
20240415172759 67 257 4.0 13.0 0.00 0.03 0.00 48 1007.0
20240415172301 67 67 3.0 13.0 0.00 0.03 0.00 47 1007.2
20240415171734 67 326 3.0 10.0 0.00 0.03 0.00 48 1007.2
20240415171208 67 60 4.0 11.0 0.00 0.03 0.00 48 1007.2
20240415170642 68 337 4.0 12.0 0.00 0.03 0.00 47 1007.2
20240415170116 67 49 3.0 12.0 0.00 0.03 0.00 47 1007.1
20240415165549 67 294 3.0 9.0 0.00 0.03 0.00 50 1007.0
20240415165024 67 338 3.0 8.0 0.00 0.03 0.00 51 1006.8
20240415164457 67 21 4.0 10.0 0.00 0.03 0.00 49 1006.8
20240415163944 67 284 4.0 10.0 0.00 0.03 0.00 48 1006.8
20240415163419 67 300 4.0 9.0 0.00 0.03 0.00 52 1006.8
20240415162917 66 80 4.0 9.0 0.00 0.03 0.00 51 1006.9
20240415162351 66 346 3.0 9.0 0.00 0.03 0.00 55 1007.1
20240415161822 65 202 2.0 6.0 0.00 0.03 0.00 57 1007.0
20240415161320 64 31 2.0 5.0 0.00 0.03 0.00 57 1007.2
20240415160816 63 192 2.0 4.0 0.00 0.03 0.00 62 1007.3
20240415160315 62 207 3.0 10.0 0.00 0.03 0.00 63 1007.4
20240415160017 62 99 2.0 9.0 0.00 0.03 0.00 64 1007.4
20240415155244 63 315 2.0 8.0 0.00 0.03 0.00 64 1007.4
20240415154740 63 18 3.0 8.0 0.00 0.03 0.00 63 1007.4
20240415154510 63 44 3.0 8.0 0.00 0.03 0.00 66 1007.3
20240415153712 62 257 2.0 5.0 0.00 0.03 0.00 66 1007.5
20240415153414 62 232 2.0 7.0 0.00 0.03 0.00 68 1007.5
20240415152643 62 215 2.0 7.0 0.00 0.03 0.00 66 1007.7
20240415152348 62 298 2.0 7.0 0.00 0.03 0.00 68 1007.6
20240415151548 61 225 2.0 7.0 0.00 0.03 0.00 66 1007.7
20240415151047 61 254 1.0 7.0 0.00 0.03 0.00 66 1007.8
20240415150813 61 141 2.0 6.0 0.00 0.03 0.00 69 1007.9
20240415150041 60 85 2.0 6.0 0.00 0.03 0.00 70 1007.9
20240415145532 60 0 2.0 5.0 0.00 0.03 0.00 68 1008.0
20240415145031 60 221 1.0 4.0 0.00 0.03 0.00 70 1008.1
20240415144514 59 300 1.0 3.0 0.00 0.03 0.00 75 1008.2
20240415144014 59 300 1.0 5.0 0.00 0.03 0.00 75 1008.1
20240415143512 58 0 2.0 5.0 0.00 0.03 0.00 73 1008.1
20240415143014 58 0 2.0 5.0 0.00 0.03 0.00 75 1008.2
20240415142453 57 248 2.0 4.0 0.00 0.03 0.00 76 1008.2
20240415141919 57 173 2.0 5.0 0.00 0.03 0.00 75 1008.0
20240415141852 57 339 1.0 5.0 0.00 0.03 0.00 78 1008.0
20240415141119 56 254 1.0 3.0 0.00 0.03 0.00 79 1008.0
20240415140319 55 238 1.0 4.0 0.00 0.03 0.00 81 1008.0
20240415135818 55 19 1.0 4.0 0.00 0.03 0.00 84 1008.1
20240415135751 54 321 2.0 3.0 0.00 0.03 0.00 85 1008.0
20240415134748 53 196 2.0 7.0 0.00 0.03 0.00 86 1007.9
20240415134220 52 325 2.0 7.0 0.00 0.03 0.00 87 1007.9
20240415133719 52 279 1.0 4.0 0.00 0.03 0.00 88 1007.8
20240415133154 51 9 1.0 4.0 0.00 0.03 0.00 91 1007.8
20240415132655 51 215 1.0 2.0 0.00 0.03 0.00 92 1007.8
20240415132123 50 215 2.0 4.0 0.00 0.03 0.00 92 1007.8
20240415131618 49 217 1.0 3.0 0.00 0.03 0.00 94 1007.9
20240415131116 49 234 1.0 3.0 0.00 0.03 0.00 95 1007.8
20240415130550 48 50 1.0 3.0 0.00 0.03 0.00 95 1007.7
20240415130025 48 50 1.0 2.0 0.00 0.03 0.00 95 1007.6
20240415125459 47 50 1.0 2.0 0.00 0.03 0.00 95 1007.7
20240415125201 47 50 1.0 2.0 0.00 0.03 0.00 95 1007.7
20240415124659 47 50 1.0 3.0 0.00 0.03 0.00 95 1007.6
20240415123902 46 66 0.0 3.0 0.00 0.03 0.00 95 1007.6
20240415123629 46 107 0.0 2.0 0.00 0.03 0.00 95 1007.6
20240415122856 46 107 0.0 2.0 0.00 0.03 0.00 95 1007.6
20240415122357 46 107 0.0 2.0 0.00 0.03 0.00 95 1007.9
20240415121828 46 107 0.0 2.0 0.00 0.03 0.00 95 1007.8
20240415121601 45 111 0.0 1.0 0.00 0.03 0.00 95 1007.7
20240415120803 45 111 0.0 1.0 0.00 0.03 0.00 95 1007.6
20240415120237 45 111 0.0 1.0 0.00 0.03 0.00 95 1007.7
20240415115738 44 111 0.0 2.0 0.00 0.03 0.00 95 1007.5
20240415115450 44 111 1.0 2.0 0.00 0.03 0.00 95 1007.5